Regional Weather Roundup
Issued by NWS

Home | Current Version | Previous Version | Graphics & Text | Print | Product List | Glossary On
Versions: 1 2 3 4 5 6 7 8 9 10 11 12 13 14 15 16 17 18 19 20 21 22 23 24 25 26 27 28 29 30 31 32 33 34 35 36 37 38 39 40 41 42 43 44 45 46 47 48 49 50
000
ASUS43 KMPX 242110
RWRMN
WEATHER ROUNDUP FOR MINNESOTA
NATIONAL WEATHER SERVICE TWIN CITIES/CHANHASSEN MN
400 PM CDT THU APR 24 2014


NOTE: "FAIR" INDICATES FEW OR NO CLOUDS BELOW 12,000 FEET WITH NO
SIGNIFICANT WEATHER AND/OR OBSTRUCTIONS TO VISIBILITY. N/A MEANS
CURRENT SKY AND/OR WEATHER CONDITIONS ARE NOT AVAILABLE.

MNZ060>063-068>070-242200-
   Twin Cities Metro

CITY           SKY/WX    TMP DP  RH WIND       PRES   REMARKS
TWIN CITIES    CLOUDY    43  41  93 E5        29.67F
ST PAUL        CLOUDY    44  41  89 SE5       29.68F
CRYSTAL        LGT RAIN  44  41  89 E3        29.67F FOG
BLAINE         CLOUDY    45  43  93 E3        29.67F
EDEN PRAIRIE   LGT RAIN  45  41  86 CALM      29.67F
LAKEVILLE      DRIZZLE   43  41  93 CALM      29.67F
SOUTH ST PAUL  CLOUDY    45  44  95 CALM      29.68F
LAKE ELMO      CLOUDY    43  41  93 CALM      29.68F
$$
MNZ001>005-007-008-013>017-022>024-027-028-242200-
   Northwest Minnesota

CITY           SKY/WX    TMP DP  RH WIND       PRES   REMARKS
BEMIDJI        LGT SNOW  32  32 100 E3        29.72F VSB 3/4
HALLOCK        CLOUDY    41  37  87 E7        29.73R
ROSEAU         LGT RAIN  36  30  80 E8        29.75S
WARROAD        MIX PCPN  36  34  93 E12       29.76S
THIEF RVR FALL CLOUDY    36  32  87 E13       29.74S
CROOKSTON      CLOUDY    39  39 100 S9        29.73S
FOSSTON        LGT SNOW  34  32  93 CALM      29.73R
DETROIT LAKES  CLOUDY    37  36  93 S6        29.73R
MOORHEAD       PTSUNNY   48  46  93 S3        29.70F
PARK RAPIDS    LGT SNOW  33  32  96 CALM      29.70F VSB 3/4
$$
MNZ006-009>011-018-025>026-242200-
   North Central Minnesota

CITY           SKY/WX    TMP DP  RH WIND       PRES   REMARKS
BAUDETTE       LGT RAIN  37  35  92 E14       29.76F FOG
FLAG ISLAND    LGT RAIN  36  36 100 E10       29.76S
INTL FALLS     LGT RAIN  36  34  92 E12       29.79F FOG
WASKISH        LGT RAIN  36  34  93 E8G16     29.74F
BIG FORK       CLOUDY    37  34  87 E7        29.76F
LONGVILLE      SNOW      34  32  93 CALM      29.71F VSB 1/2
GRAND RAPIDS   CLOUDY    34  30  86 E5        29.74F WCI  30
CRANE LAKE     RAIN      36  36 100 E3        29.83S
ORR            RAIN      36  32  87 E7        29.76F
COOK           MIX PCPN  34  34 100 E7        29.78F WCI  28
$$
MNZ012-019>021-037-242200-
   Northeast Minnesota

CITY           SKY/WX    TMP DP  RH WIND       PRES   REMARKS
DULUTH         LGT SNOW  33  31  92 E21G26    29.74F VSB 3/4 WCI  21
ELY            LGT SNOW  34  32  93 E10       29.80F WCI  26
HIBBING        LGT SNOW  34  32  92 E12       29.75F VSB 3/4 WCI  25
EVELETH        SNOW      32  32 100 E8        29.77F VSB 1/2 WCI  25
DULUTH HARBOR  MIX PCPN  34  30  86 NE14      29.79F WCI  24
TWO HARBORS    LGT SNOW  32  27  80 NE14G24   29.77F VSB 1   WCI  22
SILVER BAY     SNOW      30  30 100 NE14G21   29.81F VSB 1/2 WCI  20
GRAND MARAIS     N/A     33  31  92 NE10G20   29.92F WCI  25
G MARAIS ARPRT LGT SNOW  30  27  86 E10G16    29.88F VSB 3/4 WCI  21
$$
MNZ029>031-032-039>041-046>048-054>057-064-242200-
   West Central Minnesota

CITY           SKY/WX    TMP DP  RH WIND       PRES   REMARKS
FERGUS FALLS   CLOUDY    45  39  81 S5        29.68F
WHEATON        MOSUNNY   55  46  71 CALM      29.71F
MORRIS         MOSUNNY   52  43  71 W5        29.70F
ALEXANDRIA     CLOUDY    43  38  82 CALM      29.71S
ELBOW LAKE     CLOUDY    45  40  84 SW5       29.71F
WADENA         CLOUDY    36  36 100 SE6       29.69F
GLENWOOD       PTSUNNY   45  39  81 CALM      29.71S
APPLETON       PTSUNNY   54  43  66 NW9       29.72S
BENSON         PTSUNNY   52  43  71 N7        29.71S
ORTONVILLE     SUNNY     54  41  62 N7        29.70F
MADISON        MOSUNNY   57  45  62 N10       29.72S
WILLMAR        PTSUNNY   48  41  76 NW6       29.72R
$$
MNZ033>034-036-042>043-049>051-058-059-242200-
   Central Minnesota

CITY           SKY/WX    TMP DP  RH WIND       PRES   REMARKS
ST CLOUD       LGT RAIN  42  37  82 CALM      29.70S
SAUK CENTRE    CLOUDY    39  37  90 E3        29.70F
PAYNESVILLE    CLOUDY    42  38  85 CALM      29.70S
AITKIN         LGT SNOW  36  28  75 CALM      29.71F
PINE RIVER     SNOW      32  32 100 CALM      29.75F VSB 1/2
BRAINERD       LGT SNOW  38  32  79 CALM      29.71F VSB 3/4
STAPLES        LGT RAIN  36  36 100 CALM      29.71R
LONG PRAIRIE   CLOUDY    37  36  93 CALM      29.71R
LITTLE FALLS   MIX PCPN  36  34  93 CALM      29.71S
LITCHFIELD       N/A     45  43  93 CALM      29.70S
BUFFALO        DRIZZLE   42  39  91 CALM      29.70R
MAPLE LAKE     CLOUDY    43  41  95 CALM      29.70S
$$
MNZ037-044-045-052-053-242200-
   East Central Minnesota

CITY           SKY/WX    TMP DP  RH WIND       PRES   REMARKS
PRINCETON      LGT RAIN  43  39  87 N3        29.69F
MORA           RAIN      37  36  93 E3        29.71F
CAMBRIDGE      DRIZZLE   43  37  81 CALM      29.67F
RUSH CITY      CLOUDY    41  39  95 NE3       29.70F
MOOSE LAKE     LGT SNOW  32  32 100 NE5       29.72F VSB 1   WCI  27
HINCKLEY       LGT RAIN  36  36 100 NE7       29.72F
CLOQUET        LGT SNOW  34  32  93 E10G17    29.73F WCI  26
MCGREGOR       CLOUDY    34  32  93 E7        29.73F WCI  28
$$
MNZ071>073-080-081-089-090-097-098-242200-
   Southwest Minnesota

CITY           SKY/WX    TMP DP  RH WIND       PRES   REMARKS
MONTEVIDEO     CLOUDY    54  46  76 N10       29.72S
GRANITE FALLS  MOSUNNY   51  42  71 NW10G17   29.73R
CANBY          MOSUNNY   54  43  66 N10       29.73S
MARSHALL       PTSUNNY   54  43  66 N13       29.72R
REDWOOD FALLS  CLOUDY    53  43  68 NW15      29.69F
OLIVIA         PTSUNNY   50  43  76 NW7       29.69S
PIPESTONE      MOSUNNY   55  43  62 N9        29.71F
WINDOM         PTSUNNY   54  45  71 NW15G21   29.71R
WORTHINGTON    PTSUNNY   55  39  54 N17       29.75R
JACKSON        MOSUNNY   52  43  71 NW17G24   29.72R
TRACY          PTSUNNY   54  46  73 N16       29.72S
SLAYTON        MOSUNNY   53  41  65 NW16G22   29.73S
$$
MNZ065>067-074>077-082>085-091>093-242200-
   South Central Minnesota

CITY           SKY/WX    TMP DP  RH WIND       PRES   REMARKS
MANKATO        CLOUDY    46  43  87 W8        29.69S
NEW ULM        MOSUNNY   48  45  87 NW10      29.69S
ST JAMES       PTSUNNY   54  45  71 W15       29.70S
FAIRMONT       PTSUNNY   50  43  76 NW14      29.72R
GLENCOE        CLOUDY    46  40  82 W3        29.68S
FARIBAULT      LGT RAIN  46  43  87 W5        29.68R
OWATONNA       LGT RAIN  46  43  87 W6        29.67S
WASECA         CLOUDY    43  37  81 W12G17    29.71R
ALBERT LEA     CLOUDY    48  45  87 NW7       29.68R
$$
MNZ078>079-086>088-094>096-242200-
   Southeast Minnesota

CITY           SKY/WX    TMP DP  RH WIND       PRES   REMARKS
ROCHESTER      CLOUDY    45  43  93 S6        29.66S FOG
RED WING       DRIZZLE   43  43 100 SE6       29.66F
STANTON        DRIZZLE   45  41  88 CALM      29.65F
DODGE CENTER   CLOUDY    46  45  93 CALM      29.65F FOG
WINONA         DRIZZLE   43  41  93 SE6       29.67F
AUSTIN         CLOUDY    48  45  87 W6        29.65F
PRESTON        FOG       45  45  98 S3        29.66S VSB 3/4
$$
ABBREVIATIONS USED IN REMARKS
   TC - TEMPERATURES IN CELSIUS
  WCI - WIND CHILL INDEX
   HX - HEAT INDEX
  VSB - VISIBILITY
$$



USA.gov is the U.S. government's official web portal to all federal, state and local government web resources and services.